SL-8 DEB, 1335

Orbit data source: Space-Track

SL-8 DEB, 1335 is space debris in LEO originally from a launch on Mon, 15 Mar 1965 UTC launched from the Tyuratam Missile And Space Complex (TTMTR). Debris objects in space refer to the collection of defunct objects orbiting the Earth. Examples of debris include non-operational satellites, rocket bodies, and fragments generated from explosions, collisions, or faulty payload assembly.

Loading next visibility...
Identifier
1335, 1965-020E
Orbit
LEO
Country
Flag of CISCIS
Related business
Manufacturer
Unknown
Mission
Spacecraft
Bus & Motor
Unknown
Mass
Unknown
Launch date (UTC)
1965-03-15 (61 years ago)
Launch vehicle
Unknown
Launch site
Tyuratam Missile And Space Complex (TTMTR)
Object type
Payload
Rocket body
Debris
Shape & HBR
Unknown shape, 0.1 m
Radar Cross Section
Medium (>0.1 m² and <1 m²)

Expand to show TLE details & history
Last TLE update: 19 hours ago

TLE from 19 hours ago
0 SL-8 DEB
1  1335U 65020E   25306.52076273  .00001286  00000-0  40602-3 0  9995
2  1335  56.0750  27.3317 0532178 115.1302 250.5848 13.86573758978536
Epoch: 2025-11-02T12:29Z
TLE epoch observation values (Epoch: 2025-11-02T12:29:53.899Z)
Latitude
Longitude
157.82182°
Altitude
1,089.211 km
Speed
7.235 km/s
True Right ascension
01h 49m 19s
True Declination
0° 00' 00"
Sunlit
Object was in full shadow at epoch
Visualization orbit readout
Latitude
Unknown
Longitude
Unknown
Altitude
Unknown
Speed
Unknown
Apparent Right ascension
Unknown
Apparent Declination
Unknown
Sunlit
N/A
Visualization observer readout
Local Sidereal Time
03:41:20
Azimuth
Unknown
Elevation
Unknown
Doppler factor
Unknown
Orbital elements
Apogee altitude
1,329.949 km
Perigee altitude
550.989 km
Semi-major axis
7,318.606 km
Eccentricity
0.05322
Inclination
56.075°
RAAN
27.3317°
Arg. of periapsis
115.1302°
True anomaly
244.9668°
Mean anomaly
250.5848°
Eccentric anomaly
247.76243°
Mean motion
3.46658 °/min
Orbital period
103.85 mins
BSTAR
0.00040602
Loading maneuver chart data...
Computing Atmospheric mass density...
Loading historical data...
Loading historical data...
Loading historical data...
Loading historical data...
Loading historical data...
Loading historical data...
Loading historical data...

Documentation

Showing up to 5 results
|